QPF
0.00 0.01 0.02 0.02 0.02 0.02 0.03 0.04 0.07 0.07 0.05 0.06 0.04 0.04 0.04 0.04 0.05 0.05 0.06 0.06 0.04 0.05 0.05 0.04 0.03 0.03 0.02 0.02 0.01 0.01 0.01 0.01 0.02 0.02 0.02 0.03 0.04 0.05 0.05 0.05 0.04 0.03 0.03
0.00 0.00 0.01 0.02 0.02 0.02 0.03 0.05 0.05 0.05 0.04 0.05 0.04 0.03 0.04 0.04 0.04 0.06 0.07 0.06 0.06 0.08 0.07 0.04 0.03 0.03 0.01 0.01 0.01 0.00 0.00 0.00 0.01 0.01 0.02 0.02 0.03 0.04 0.05 0.04 0.04 0.04 0.04
0.00 0.00 0.01 0.01 0.02 0.02 0.03 0.04 0.05 0.05 0.03 0.03 0.02 0.02 0.03 0.04 0.04 0.04 0.05 0.05 0.05 0.08 0.07 0.03 0.02 0.01 0.01 0.01 0.01 0.01 0.00 0.00 0.00 0.01 0.01 0.01 0.02 0.03 0.04 0.04 0.03 0.03 0.03
0.00 0.00 0.00 0.01 0.01 0.02 0.03 0.04 0.05 0.04 0.03 0.03 0.03 0.02 0.02 0.04 0.04 0.05 0.05 0.05 0.05 0.06 0.04 0.02 0.01 0.01 0.01 0.00 0.00 0.00 0.00 0.00 0.00 0.00 0.01 0.01 0.01 0.03 0.04 0.04 0.03 0.02 0.02
0.00 0.00 0.00 0.01 0.01 0.02 0.03 0.03 0.03 0.04 0.04 0.04 0.04 0.04 0.03 0.03 0.03 0.04 0.04 0.04 0.04 0.04 0.03 0.02 0.01 0.01 0.00 0.00 0.00 0.00 0.00 0.00 0.00 0.01 0.01 0.01 0.01 0.03 0.03 0.03 0.02 0.01 0.01
0.00 0.00 0.00 0.01 0.01 0.02 0.02 0.03 0.03 0.03 0.04 0.04 0.06 0.06 0.04 0.03 0.02 0.02 0.03 0.03 0.03 0.03 0.03 0.02 0.01 0.01 0.00 0.00 0.00 0.00 0.00 0.00 0.00 0.01 0.02 0.01 0.01 0.03 0.02 0.02 0.01 0.01 0.01
0.01 0.01 0.00 0.01 0.01 0.02 0.02 0.03 0.03 0.04 0.04 0.04 0.06 0.06 0.04 0.02 0.01 0.01 0.02 0.02 0.03 0.03 0.03 0.02 0.01 0.01 0.01 0.00 0.00 0.00 0.00 0.00 0.00 0.01 0.02 0.02 0.01 0.02 0.01 0.01 0.01 0.01 0.01
0.03 0.03 0.01 0.01 0.01 0.02 0.02 0.02 0.02 0.04 0.04 0.04 0.05 0.06 0.04 0.03 0.02 0.02 0.02 0.02 0.03 0.03 0.03 0.03 0.01 0.02 0.01 0.01 0.00 0.00 0.00 0.01 0.01 0.01 0.01 0.02 0.01 0.01 0.01 0.01 0.01 0.01 0.01
0.03 0.05 0.05 0.03 0.01 0.01 0.01 0.03 0.03 0.03 0.04 0.04 0.06 0.06 0.04 0.03 0.02 0.02 0.02 0.02 0.02 0.02 0.03 0.03 0.02 0.02 0.01 0.00 0.00 0.00 0.00 0.00 0.01 0.01 0.02 0.02 0.01 0.01 0.01 0.01 0.01 0.01 0.01
0.03 0.05 0.06 0.07 0.06 0.04 0.03 0.02 0.03 0.03 0.04 0.05 0.06 0.05 0.03 0.02 0.02 0.02 0.02 0.02 0.03 0.02 0.03 0.03 0.03 0.02 0.01 0.00 0.00 0.00 0.00 0.00 0.01 0.02 0.03 0.02 0.01 0.01 0.01 0.01 0.01 0.01 0.01
0.02 0.02 0.04 0.06 0.06 0.05 0.05 0.03 0.03 0.03 0.04 0.05 0.06 0.05 0.03 0.03 0.03 0.02 0.02 0.02 0.03 0.03 0.03 0.03 0.03 0.03 0.01 0.01 0.00 0.00 0.00 0.01 0.02 0.02 0.03 0.02 0.01 0.01 0.01 0.01 0.01 0.01 0.01
0.04 0.04 0.04 0.05 0.05 0.05 0.04 0.03 0.04 0.05 0.05 0.05 0.05 0.05 0.05 0.05 0.05 0.03 0.02 0.02 0.02 0.02 0.03 0.03 0.03 0.03 0.02 0.01 0.01 0.01 0.01 0.01 0.01 0.01 0.01 0.01 0.01 0.02 0.02 0.01 0.01 0.01 0.01
0.06 0.06 0.06 0.06 0.07 0.06 0.04 0.03 0.04 0.06 0.06 0.06 0.04 0.05 0.06 0.07 0.06 0.04 0.03 0.03 0.03 0.03 0.04 0.04 0.04 0.03 0.02 0.02 0.01 0.01 0.00 0.00 0.01 0.01 0.00 0.01 0.01 0.02 0.02 0.01 0.01 0.01 0.01
0.06 0.06 0.06 0.06 0.08 0.08 0.06 0.04 0.04 0.05 0.06 0.08 0.07 0.06 0.06 0.06 0.05 0.04 0.04 0.04 0.04 0.04 0.04 0.04 0.04 0.03 0.02 0.01 0.01 0.01 0.00 0.00 0.00 0.00 0.00 0.00 0.01 0.01 0.02 0.01 0.01 0.01 0.01
0.04 0.05 0.05 0.05 0.06 0.08 0.09 0.07 0.05 0.05 0.04 0.05 0.07 0.08 0.07 0.06 0.05 0.04 0.05 0.04 0.04 0.04 0.04 0.05 0.04 0.02 0.02 0.01 0.01 0.01 0.00 0.00 0.00 0.00 0.00 0.00 0.00 0.01 0.02 0.02 0.02 0.02 0.01
0.02 0.03 0.03 0.04 0.06 0.08 0.10 0.09 0.07 0.06 0.05 0.05 0.05 0.06 0.07 0.08 0.07 0.05 0.04 0.05 0.05 0.05 0.04 0.05 0.04 0.03 0.02 0.02 0.01 0.01 0.01 0.00 0.00 0.00 0.00 0.00 0.00 0.01 0.02 0.02 0.01 0.02 0.02
0.02 0.02 0.02 0.03 0.05 0.06 0.07 0.08 0.08 0.08 0.07 0.05 0.05 0.05 0.06 0.07 0.09 0.08 0.06 0.05 0.06 0.07 0.04 0.04 0.04 0.03 0.01 0.01 0.02 0.01 0.01 0.01 0.01 0.00 0.00 0.00 0.00 0.00 0.01 0.02 0.01 0.01 0.01
0.03 0.02 0.02 0.02 0.02 0.03 0.04 0.04 0.05 0.07 0.08 0.07 0.06 0.06 0.05 0.05 0.08 0.11 0.09 0.06 0.06 0.08 0.07 0.04 0.03 0.03 0.02 0.01 0.01 0.01 0.01 0.01 0.01 0.01 0.01 0.01 0.01 0.00 0.00 0.01 0.02 0.01 0.00
0.03 0.02 0.02 0.01 0.01 0.01 0.03 0.04 0.04 0.05 0.07 0.08 0.07 0.07 0.06 0.06 0.06 0.10 0.09 0.07 0.07 0.07 0.09 0.09 0.04 0.03 0.02 0.01 0.00 0.00 0.01 0.01 0.01 0.01 0.01 0.01 0.01 0.01 0.01 0.00 0.02 0.02 0.01
0.02 0.03 0.02 0.01 0.01 0.01 0.02 0.04 0.05 0.06 0.06 0.07 0.08 0.08 0.09 0.10 0.09 0.09 0.09 0.07 0.06 0.06 0.09 0.12 0.11 0.06 0.04 0.03 0.01 0.00 0.00 0.00 0.00 0.00 0.01 0.01 0.01 0.00 0.00 0.00 0.01 0.01 0.02
0.03 0.03 0.03 0.02 0.02 0.01 0.01 0.03 0.05 0.07 0.07 0.08 0.09 0.10 0.10 0.09 0.10 0.10 0.10 0.09 0.07 0.06 0.06 0.10 0.13 0.11 0.08 0.06 0.04 0.02 0.01 0.01 0.01 0.01 0.01 0.01 0.00 0.00 0.00 0.00 0.01 0.01 0.01
0.03 0.03 0.03 0.03 0.02 0.02 0.02 0.03 0.06 0.08 0.10 0.11 0.12 0.12 0.12 0.11 0.11 0.12 0.12 0.11 0.09 0.08 0.07 0.07 0.10 0.14 0.12 0.10 0.08 0.06 0.04 0.02 0.01 0.01 0.01 0.01 0.01 0.01 0.00 0.01 0.01 0.01 0.00
0.03 0.03 0.03 0.03 0.02 0.02 0.02 0.03 0.05 0.06 0.08 0.12 0.14 0.14 0.13 0.13 0.14 0.14 0.13 0.12 0.10 0.07 0.06 0.08 0.09 0.09 0.14 0.15 0.11 0.09 0.07 0.05 0.03 0.01 0.01 0.01 0.00 0.00 0.01 0.01 0.02 0.01 0.00
0.03 0.02 0.02 0.02 0.02 0.02 0.02 0.03 0.03 0.03 0.05 0.08 0.12 0.15 0.15 0.14 0.14 0.14 0.15 0.12 0.11 0.09 0.05 0.05 0.08 0.09 0.10 0.12 0.13 0.11 0.09 0.06 0.03 0.02 0.01 0.01 0.01 0.01 0.01 0.01 0.02 0.02 0.01
0.03 0.03 0.02 0.01 0.02 0.03 0.02 0.02 0.02 0.02 0.04 0.05 0.08 0.10 0.12 0.13 0.13 0.14 0.15 0.14 0.12 0.11 0.09 0.05 0.04 0.05 0.07 0.07 0.07 0.08 0.08 0.06 0.03 0.01 0.01 0.01 0.01 0.01 0.01 0.01 0.01 0.02 0.03
0.03 0.03 0.02 0.01 0.02 0.02 0.02 0.03 0.03 0.02 0.03 0.03 0.04 0.06 0.08 0.09 0.09 0.09 0.11 0.12 0.12 0.11 0.11 0.08 0.04 0.04 0.04 0.04 0.05 0.05 0.06 0.06 0.04 0.02 0.01 0.01 0.01 0.01 0.01 0.01 0.01 0.01 0.02
MSLP
1012.35 1012.33 1012.44 1012.71 1013.11 1013.58 1014.05 1014.46 1014.74 1014.90 1014.95 1014.94 1014.93 1014.96 1015.06 1015.22 1015.41 1015.60 1015.75 1015.85 1015.90 1015.93 1015.96 1016.02 1016.13 1016.30 1016.49 1016.69 1016.87 1017.00 1017.08 1017.12 1017.13 1017.14 1017.16 1017.20 1017.25 1017.31 1017.35 1017.38 1017.38 1017.37 1017.36
1011.89 1011.97 1012.21 1012.60 1013.11 1013.66 1014.17 1014.58 1014.85 1014.98 1015.01 1014.99 1015.00 1015.08 1015.23 1015.45 1015.70 1015.92 1016.10 1016.21 1016.26 1016.27 1016.30 1016.36 1016.47 1016.63 1016.83 1017.02 1017.18 1017.29 1017.34 1017.35 1017.35 1017.34 1017.36 1017.40 1017.47 1017.54 1017.61 1017.65 1017.66 1017.65 1017.64
1011.46 1011.65 1012.00 1012.50 1013.10 1013.72 1014.27 1014.68 1014.94 1015.05 1015.07 1015.06 1015.09 1015.20 1015.40 1015.67 1015.95 1016.20 1016.38 1016.49 1016.54 1016.55 1016.57 1016.64 1016.76 1016.93 1017.13 1017.31 1017.45 1017.52 1017.54 1017.52 1017.48 1017.46 1017.47 1017.53 1017.62 1017.72 1017.82 1017.88 1017.92 1017.94 1017.95
1011.15 1011.43 1011.87 1012.46 1013.13 1013.80 1014.37 1014.79 1015.04 1015.14 1015.16 1015.16 1015.22 1015.35 1015.58 1015.86 1016.15 1016.41 1016.59 1016.69 1016.73 1016.75 1016.78 1016.87 1017.01 1017.19 1017.39 1017.56 1017.67 1017.71 1017.68 1017.61 1017.54 1017.50 1017.51 1017.58 1017.70 1017.84 1017.97 1018.08 1018.16 1018.22 1018.25
1011.00 1011.34 1011.85 1012.50 1013.21 1013.90 1014.48 1014.90 1015.14 1015.25 1015.27 1015.29 1015.36 1015.52 1015.75 1016.04 1016.32 1016.56 1016.72 1016.81 1016.85 1016.88 1016.94 1017.06 1017.23 1017.44 1017.64 1017.79 1017.87 1017.87 1017.79 1017.67 1017.56 1017.50 1017.51 1017.59 1017.73 1017.90 1018.08 1018.23 1018.36 1018.45 1018.53
1011.02 1011.40 1011.94 1012.61 1013.34 1014.02 1014.59 1015.00 1015.25 1015.36 1015.40 1015.44 1015.53 1015.70 1015.93 1016.20 1016.47 1016.68 1016.82 1016.90 1016.95 1017.00 1017.09 1017.25 1017.45 1017.67 1017.88 1018.02 1018.06 1018.01 1017.88 1017.71 1017.56 1017.48 1017.47 1017.56 1017.73 1017.93 1018.14 1018.34 1018.50 1018.63 1018.74
1011.18 1011.56 1012.10 1012.76 1013.46 1014.13 1014.68 1015.08 1015.32 1015.45 1015.52 1015.59 1015.70 1015.88 1016.11 1016.37 1016.60 1016.79 1016.92 1016.99 1017.05 1017.13 1017.25 1017.44 1017.67 1017.91 1018.11 1018.23 1018.23 1018.13 1017.95 1017.75 1017.57 1017.46 1017.45 1017.55 1017.73 1017.95 1018.19 1018.41 1018.60 1018.76 1018.90
1011.38 1011.75 1012.26 1012.88 1013.54 1014.17 1014.69 1015.08 1015.33 1015.48 1015.59 1015.69 1015.84 1016.04 1016.28 1016.53 1016.74 1016.91 1017.02 1017.10 1017.17 1017.27 1017.43 1017.64 1017.89 1018.13 1018.32 1018.40 1018.37 1018.23 1018.02 1017.78 1017.58 1017.47 1017.46 1017.56 1017.75 1017.99 1018.23 1018.47 1018.67 1018.84 1019.00
1011.56 1011.89 1012.36 1012.92 1013.53 1014.10 1014.59 1014.97 1015.24 1015.43 1015.58 1015.73 1015.92 1016.16 1016.41 1016.66 1016.87 1017.03 1017.14 1017.22 1017.31 1017.43 1017.61 1017.83 1018.08 1018.31 1018.47 1018.52 1018.46 1018.28 1018.05 1017.80 1017.60 1017.49 1017.50 1017.61 1017.81 1018.05 1018.29 1018.52 1018.72 1018.89 1019.04
1011.65 1011.95 1012.36 1012.86 1013.40 1013.93 1014.38 1014.75 1015.03 1015.26 1015.47 1015.68 1015.92 1016.19 1016.47 1016.74 1016.96 1017.12 1017.24 1017.33 1017.43 1017.57 1017.75 1017.97 1018.20 1018.40 1018.53 1018.55 1018.46 1018.27 1018.03 1017.79 1017.61 1017.53 1017.56 1017.69 1017.89 1018.13 1018.36 1018.57 1018.75 1018.90 1019.04
1011.64 1011.89 1012.26 1012.70 1013.18 1013.65 1014.07 1014.43 1014.73 1015.00 1015.25 1015.52 1015.82 1016.14 1016.45 1016.74 1016.98 1017.16 1017.29 1017.40 1017.51 1017.65 1017.83 1018.03 1018.23 1018.40 1018.49 1018.48 1018.36 1018.18 1017.95 1017.74 1017.60 1017.55 1017.62 1017.77 1017.97 1018.20 1018.42 1018.60 1018.74 1018.87 1018.99
1011.52 1011.76 1012.08 1012.47 1012.90 1013.32 1013.71 1014.05 1014.36 1014.65 1014.95 1015.27 1015.61 1015.97 1016.32 1016.64 1016.90 1017.11 1017.26 1017.39 1017.51 1017.65 1017.81 1017.99 1018.16 1018.29 1018.35 1018.31 1018.19 1018.02 1017.82 1017.65 1017.55 1017.55 1017.64 1017.81 1018.03 1018.24 1018.43 1018.58 1018.69 1018.78 1018.87
1011.34 1011.57 1011.87 1012.22 1012.60 1012.98 1013.33 1013.66 1013.97 1014.27 1014.59 1014.94 1015.31 1015.70 1016.08 1016.43 1016.72 1016.95 1017.13 1017.28 1017.41 1017.55 1017.71 1017.86 1018.00 1018.10 1018.13 1018.08 1017.97 1017.81 1017.65 1017.52 1017.47 1017.50 1017.62 1017.80 1018.01 1018.21 1018.38 1018.49 1018.57 1018.62 1018.68
1011.12 1011.36 1011.65 1011.98 1012.32 1012.66 1012.98 1013.29 1013.59 1013.89 1014.22 1014.57 1014.96 1015.36 1015.75 1016.11 1016.43 1016.69 1016.90 1017.07 1017.23 1017.37 1017.52 1017.67 1017.79 1017.86 1017.88 1017.83 1017.73 1017.60 1017.47 1017.38 1017.35 1017.41 1017.54 1017.71 1017.91 1018.08 1018.22 1018.31 1018.36 1018.39 1018.42
1010.88 1011.13 1011.43 1011.75 1012.07 1012.39 1012.68 1012.97 1013.25 1013.54 1013.86 1014.20 1014.58 1014.97 1015.36 1015.73 1016.06 1016.34 1016.58 1016.78 1016.96 1017.13 1017.29 1017.43 1017.55 1017.62 1017.64 1017.60 1017.52 1017.41 1017.31 1017.24 1017.22 1017.28 1017.39 1017.54 1017.71 1017.86 1017.97 1018.04 1018.08 1018.09 1018.10
1010.59 1010.87 1011.18 1011.51 1011.83 1012.14 1012.43 1012.70 1012.97 1013.24 1013.53 1013.85 1014.20 1014.57 1014.94 1015.30 1015.63 1015.93 1016.20 1016.43 1016.64 1016.83 1017.02 1017.18 1017.31 1017.40 1017.43 1017.42 1017.36 1017.27 1017.19 1017.12 1017.09 1017.12 1017.19 1017.30 1017.43 1017.54 1017.64 1017.70 1017.73 1017.74 1017.74
1010.25 1010.56 1010.89 1011.22 1011.56 1011.88 1012.18 1012.46 1012.72 1012.98 1013.25 1013.54 1013.85 1014.18 1014.52 1014.86 1015.19 1015.49 1015.78 1016.04 1016.28 1016.51 1016.73 1016.92 1017.08 1017.20 1017.27 1017.29 1017.25 1017.19 1017.11 1017.03 1016.97 1016.95 1016.97 1017.03 1017.10 1017.18 1017.26 1017.31 1017.35 1017.37 1017.38
1009.85 1010.17 1010.51 1010.87 1011.22 1011.57 1011.90 1012.20 1012.48 1012.74 1013.00 1013.26 1013.53 1013.81 1014.11 1014.42 1014.73 1015.03 1015.33 1015.62 1015.90 1016.16 1016.42 1016.65 1016.85 1017.01 1017.12 1017.18 1017.18 1017.13 1017.05 1016.96 1016.87 1016.79 1016.75 1016.74 1016.76 1016.80 1016.86 1016.92 1016.98 1017.02 1017.05
1009.39 1009.71 1010.05 1010.43 1010.81 1011.19 1011.56 1011.90 1012.21 1012.49 1012.74 1012.98 1013.21 1013.45 1013.71 1013.98 1014.26 1014.56 1014.87 1015.17 1015.48 1015.78 1016.07 1016.34 1016.59 1016.80 1016.95 1017.06 1017.10 1017.08 1017.01 1016.90 1016.78 1016.65 1016.54 1016.47 1016.43 1016.44 1016.48 1016.55 1016.63 1016.71 1016.76
1008.94 1009.23 1009.56 1009.93 1010.34 1010.75 1011.16 1011.55 1011.89 1012.19 1012.45 1012.67 1012.87 1013.07 1013.29 1013.52 1013.78 1014.06 1014.37 1014.69 1015.02 1015.35 1015.67 1015.98 1016.27 1016.52 1016.73 1016.88 1016.97 1016.98 1016.93 1016.83 1016.68 1016.52 1016.36 1016.23 1016.15 1016.12 1016.14 1016.22 1016.32 1016.43 1016.51
1008.57 1008.80 1009.09 1009.44 1009.85 1010.28 1010.72 1011.14 1011.52 1011.84 1012.10 1012.31 1012.49 1012.65 1012.83 1013.03 1013.26 1013.53 1013.83 1014.16 1014.50 1014.85 1015.20 1015.55 1015.87 1016.17 1016.42 1016.62 1016.76 1016.82 1016.80 1016.71 1016.56 1016.38 1016.19 1016.02 1015.89 1015.83 1015.84 1015.91 1016.02 1016.15 1016.27
1008.36 1008.51 1008.74 1009.04 1009.41 1009.83 1010.28 1010.71 1011.11 1011.43 1011.69 1011.88 1012.03 1012.16 1012.30 1012.47 1012.68 1012.94 1013.24 1013.57 1013.93 1014.30 1014.66 1015.03 1015.38 1015.71 1016.00 1016.24 1016.43 1016.54 1016.57 1016.52 1016.39 1016.22 1016.01 1015.82 1015.66 1015.57 1015.55 1015.60 1015.72 1015.87 1016.01
1008.36 1008.43 1008.55 1008.77 1009.08 1009.46 1009.87 1010.29 1010.66 1010.98 1011.21 1011.38 1011.49 1011.59 1011.70 1011.84 1012.03 1012.28 1012.59 1012.93 1013.29 1013.67 1014.05 1014.42 1014.79 1015.14 1015.46 1015.75 1015.98 1016.15 1016.23 1016.23 1016.14 1015.99 1015.80 1015.60 1015.42 1015.30 1015.25 1015.28 1015.39 1015.53 1015.70
1008.59 1008.55 1008.57 1008.68 1008.90 1009.19 1009.54 1009.89 1010.22 1010.49 1010.68 1010.80 1010.88 1010.94 1011.02 1011.14 1011.33 1011.57 1011.88 1012.23 1012.60 1012.99 1013.37 1013.75 1014.12 1014.47 1014.81 1015.13 1015.40 1015.62 1015.76 1015.82 1015.79 1015.68 1015.52 1015.33 1015.15 1015.01 1014.94 1014.94 1015.01 1015.15 1015.31
1008.97 1008.83 1008.75 1008.75 1008.84 1009.03 1009.28 1009.55 1009.80 1009.99 1010.12 1010.19 1010.22 1010.25 1010.30 1010.40 1010.58 1010.83 1011.14 1011.50 1011.88 1012.27 1012.65 1013.02 1013.38 1013.73 1014.07 1014.40 1014.70 1014.96 1015.16 1015.28 1015.32 1015.27 1015.15 1015.00 1014.83 1014.69 1014.60 1014.57 1014.62 1014.73 1014.88
1009.41 1009.20 1009.01 1008.90 1008.88 1008.95 1009.09 1009.25 1009.41 1009.52 1009.57 1009.58 1009.55 1009.54 1009.56 1009.65 1009.82 1010.07 1010.39 1010.75 1011.13 1011.52 1011.90 1012.25 1012.60 1012.93 1013.27 1013.60 1013.91 1014.21 1014.45 1014.63 1014.74 1014.76 1014.71 1014.61 1014.48 1014.35 1014.25 1014.21 1014.23 1014.32 1014.46
Thickness
5727 5728 5727 5727 5727 5727 5728 5728 5728 5727 5727 5727 5727 5727 5727 5727 5727 5727 5726 5726 5725 5725 5725 5725 5724 5724 5724 5723 5723 5722 5722 5722 5722 5721 5721 5721 5721 5721 5721 5721 5721 5720 5720
5726 5725 5725 5724 5725 5724 5724 5724 5724 5724 5724 5724 5724 5724 5724 5724 5724 5723 5723 5723 5722 5722 5722 5721 5721 5721 5720 5720 5719 5719 5719 5718 5718 5718 5718 5718 5718 5718 5718 5718 5717 5717 5717
5724 5722 5721 5721 5721 5721 5721 5721 5721 5720 5720 5720 5720 5720 5720 5720 5720 5720 5720 5720 5719 5719 5718 5718 5718 5717 5716 5716 5716 5716 5715 5715 5715 5715 5715 5715 5715 5715 5715 5714 5714 5714 5713
5720 5718 5717 5717 5717 5717 5717 5717 5717 5716 5716 5716 5717 5717 5717 5717 5716 5716 5716 5716 5716 5715 5715 5714 5714 5713 5713 5713 5712 5712 5712 5712 5713 5713 5713 5712 5712 5711 5711 5710 5710 5710 5709
5716 5714 5713 5712 5712 5712 5712 5712 5713 5712 5712 5712 5712 5712 5712 5712 5712 5713 5712 5712 5712 5712 5711 5711 5710 5710 5709 5709 5709 5709 5709 5709 5709 5709 5709 5708 5707 5707 5707 5706 5706 5706 5705
5711 5709 5707 5707 5707 5707 5707 5708 5708 5708 5708 5708 5708 5708 5708 5708 5708 5708 5708 5708 5708 5708 5708 5707 5706 5706 5705 5705 5705 5705 5705 5706 5706 5705 5705 5704 5703 5703 5703 5702 5702 5701 5701
5705 5703 5702 5702 5702 5702 5702 5702 5703 5703 5703 5703 5703 5703 5703 5704 5704 5704 5704 5704 5704 5704 5703 5703 5702 5702 5701 5701 5701 5701 5701 5701 5701 5701 5700 5699 5699 5698 5698 5697 5697 5697 5697
5699 5698 5696 5695 5696 5696 5696 5697 5697 5698 5698 5698 5698 5698 5698 5699 5699 5699 5699 5699 5699 5699 5699 5699 5698 5697 5697 5697 5697 5697 5697 5697 5697 5696 5695 5694 5693 5693 5693 5692 5692 5692 5692
5693 5692 5690 5689 5689 5689 5690 5690 5691 5692 5692 5693 5693 5693 5693 5693 5694 5694 5694 5694 5694 5694 5694 5694 5693 5693 5692 5692 5692 5693 5693 5693 5692 5691 5690 5689 5688 5688 5688 5687 5687 5687 5686
5686 5685 5684 5683 5683 5683 5683 5684 5685 5685 5686 5687 5687 5688 5688 5688 5688 5689 5689 5689 5689 5689 5689 5689 5689 5688 5688 5687 5688 5688 5688 5688 5687 5686 5684 5683 5683 5683 5682 5682 5681 5681 5681
5677 5677 5677 5677 5677 5677 5677 5677 5678 5679 5680 5681 5681 5682 5683 5683 5683 5683 5684 5684 5684 5684 5684 5684 5684 5684 5683 5683 5683 5683 5683 5683 5682 5680 5679 5678 5678 5677 5677 5676 5676 5675 5675
5667 5668 5669 5670 5670 5670 5670 5670 5671 5672 5673 5674 5675 5676 5677 5678 5678 5678 5678 5678 5678 5678 5679 5679 5678 5678 5677 5677 5677 5678 5678 5677 5676 5674 5673 5672 5672 5671 5671 5670 5669 5669 5669
5658 5659 5661 5662 5662 5662 5663 5663 5664 5665 5666 5668 5669 5670 5671 5672 5672 5672 5672 5672 5672 5673 5673 5673 5672 5672 5672 5672 5672 5672 5672 5671 5670 5668 5667 5666 5666 5665 5664 5664 5663 5663 5662
5650 5650 5652 5652 5653 5653 5654 5655 5656 5657 5659 5660 5662 5663 5664 5665 5666 5666 5666 5666 5666 5667 5667 5666 5666 5666 5666 5666 5666 5666 5665 5665 5663 5662 5660 5660 5659 5659 5658 5657 5657 5656 5656
5641 5641 5642 5643 5643 5644 5644 5645 5647 5649 5651 5652 5654 5655 5657 5658 5658 5659 5659 5659 5660 5660 5660 5660 5660 5660 5660 5659 5659 5660 5659 5658 5657 5655 5654 5653 5652 5651 5651 5650 5650 5649 5649
5633 5632 5633 5633 5633 5634 5635 5636 5638 5640 5642 5644 5645 5647 5649 5650 5651 5652 5652 5652 5653 5653 5653 5654 5654 5654 5653 5653 5653 5653 5652 5651 5650 5649 5647 5646 5645 5645 5644 5643 5643 5642 5642
5624 5624 5623 5624 5625 5625 5627 5628 5629 5631 5633 5635 5637 5639 5641 5642 5643 5644 5645 5645 5646 5646 5646 5646 5647 5647 5647 5646 5646 5645 5645 5644 5643 5642 5641 5639 5638 5637 5636 5636 5635 5635 5634
5615 5614 5614 5615 5616 5616 5617 5619 5620 5623 5625 5627 5629 5631 5633 5635 5636 5636 5638 5638 5638 5638 5639 5638 5638 5638 5638 5638 5637 5637 5637 5636 5636 5635 5634 5632 5631 5630 5629 5628 5627 5627 5626
5606 5606 5605 5606 5607 5607 5608 5609 5611 5614 5616 5618 5621 5623 5625 5627 5629 5629 5630 5631 5630 5630 5630 5630 5630 5629 5629 5629 5629 5629 5629 5628 5628 5627 5626 5624 5623 5622 5621 5620 5619 5618 5618
5598 5597 5597 5598 5598 5599 5600 5601 5602 5604 5607 5610 5612 5615 5617 5619 5621 5623 5623 5623 5623 5622 5622 5622 5620 5621 5620 5620 5621 5621 5620 5620 5620 5619 5618 5616 5615 5614 5614 5613 5611 5610 5609
5589 5588 5589 5589 5590 5591 5592 5593 5594 5596 5598 5601 5604 5607 5609 5611 5613 5614 5615 5615 5615 5614 5614 5613 5612 5612 5611 5612 5610 5609 5610 5611 5611 5610 5609 5608 5607 5606 5606 5604 5603 5601 5600
5581 5580 5581 5582 5582 5583 5584 5586 5587 5589 5591 5593 5596 5598 5601 5603 5604 5605 5606 5606 5607 5605 5604 5604 5603 5601 5601 5602 5599 5597 5596 5597 5599 5601 5600 5599 5598 5598 5597 5596 5594 5593 5591
5572 5572 5574 5574 5575 5576 5578 5579 5580 5581 5582 5584 5587 5590 5592 5594 5594 5596 5597 5598 5598 5597 5596 5595 5594 5593 5590 5590 5591 5588 5585 5584 5585 5589 5591 5590 5589 5588 5588 5586 5585 5584 5583
5563 5564 5566 5567 5568 5570 5571 5572 5573 5574 5574 5576 5578 5580 5583 5584 5585 5587 5587 5588 5589 5588 5587 5587 5586 5585 5582 5579 5579 5579 5579 5578 5575 5575 5578 5579 5580 5578 5577 5576 5575 5574 5573
5556 5557 5558 5560 5561 5563 5564 5565 5565 5566 5567 5569 5570 5572 5573 5574 5576 5577 5578 5578 5579 5579 5578 5577 5577 5575 5574 5571 5570 5569 5568 5567 5567 5565 5564 5565 5567 5567 5567 5567 5566 5564 5563
5548 5549 5551 5552 5554 5555 5557 5558 5558 5559 5559 5560 5561 5563 5564 5565 5567 5568 5569 5569 5569 5569 5568 5568 5567 5566 5565 5563 5562 5561 5558 5556 5555 5554 5553 5553 5553 5556 5556 5556 5555 5554 5553